Flag for Czech Republic Weather past 2 weeks in Prague, Czech Republic

Now
43 °F

Passing clouds.


Feels Like: 39 °F
Forecast: 30 / 41 °F
Wind: 7 mph from East

Location: Prague Ruzyne Airport

Current Time: Feb 27, 2015 at 5:07:35 PM

Latest Report: Feb 27, 2015 at 4:30 PM


Visibility: N/A

Pressure: 29.86 "Hg

Humidity: 61%

Dew point: 30 °F

Location of PragueLocation

Historic Weather in Prague — Graph

°F

Prague temperature yesterday

Maximum temperature yesterday: 45 °F (at 1:00 PM)
Minimum temperature yesterday: 27 °F (at 3:30 AM)
Average temperature yesterday: 36 °F

Past Weeks' High & Low Weather Summary

 TemperatureHumidityPressure
High50 °F (Feb 20, 2:00 PM)93% (Feb 13, 3:30 AM)30.72 "Hg (Feb 13, 3:30 AM)
Low23 °F (Feb 17, 5:30 AM)42% (Feb 26, 2:00 PM)29.47 "Hg (Feb 21, 4:00 PM)
Average35 °F79%30.04 "Hg
* Reported Feb 12 4:00 PM — Feb 27 4:00 PM, Prague, Weather by CustomWeather, © 2015

Note: Actual official high and low records may vary slightly from our data, if they occured in-between our weather recording intervals... More about our weather records

Advertising

Prague weather history for previous 24 hours

 ConditionsComfort  
Time TempWeatherWind HumidityBarometerVisibility
4:00 PM
Fri, Feb 27
41 °FPassing clouds.7 mph66%29.86 "HgN/A
3:30 PM43 °FPassing clouds.8 mph61%29.86 "HgN/A
3:00 PM43 °FScattered clouds.6 mph61%29.86 "HgN/A
2:30 PM41 °FPartly sunny.6 mph66%29.86 "HgN/A
2:00 PM43 °FPartly sunny.6 mph61%29.86 "HgN/A
1:30 PM43 °FPartly sunny.8 mph61%29.86 "HgN/A
1:00 PM41 °FPartly sunny.6 mph66%29.86 "HgN/A
12:30 PM41 °FPartly sunny.5 mph66%29.86 "HgN/A
12:00 PM41 °FPartly sunny.7 mph66%29.89 "HgN/A
11:30 AM41 °FPartly sunny.9 mph66%29.89 "HgN/A
11:00 AM41 °FPartly sunny.7 mph66%29.89 "HgN/A
10:30 AM39 °FScattered clouds.7 mph75%29.86 "HgN/A
10:00 AM37 °FPassing clouds.5 mph81%29.86 "HgN/A
9:30 AM36 °FSunny.7 mph81%29.86 "Hg10 mi
9:00 AM36 °FSunny.6 mph81%29.89 "Hg10 mi
8:30 AM34 °FSunny.8 mph81%29.89 "Hg10 mi
8:00 AM32 °FClear.6 mph80%29.89 "Hg6 mi
7:30 AM28 °FClear.6 mph86%29.89 "Hg6 mi
7:00 AM28 °FClear.7 mph86%29.89 "Hg6 mi
6:30 AM28 °FClear.6 mph86%29.89 "Hg10 mi
6:00 AM28 °FClear.5 mph86%29.89 "Hg10 mi
5:30 AM28 °FClear.6 mph86%29.89 "Hg10 mi
4:30 AM30 °FClear.7 mph86%29.89 "Hg10 mi
4:00 AM28 °FClear.7 mph86%29.89 "Hg10 mi
3:30 AM30 °FClear.7 mph80%29.92 "Hg10 mi
3:00 AM32 °FClear.7 mph80%29.92 "Hg10 mi
2:30 AM30 °FClear.6 mph86%29.92 "Hg10 mi
2:00 AM30 °FClear.6 mph86%29.95 "Hg10 mi
1:30 AM32 °FClear.6 mph80%29.95 "Hg10 mi
1:00 AM30 °FClear.5 mph86%29.98 "Hg10 mi
12:30 AM30 °FClear.5 mph86%29.98 "Hg10 mi
12:00 AM30 °FPassing clouds.6 mph86%29.98 "HgN/A
11:30 PM
Thu, Feb 26
32 °FPassing clouds.6 mph80%29.98 "HgN/A
11:00 PM32 °FClear.6 mph80%30.01 "Hg10 mi
10:30 PM32 °FClear.7 mph80%30.01 "Hg10 mi
10:00 PM34 °FPassing clouds.6 mph75%30.01 "HgN/A
9:30 PM36 °FClear.6 mph70%30.04 "Hg10 mi
9:00 PM36 °FClear.6 mph70%30.04 "Hg10 mi
8:30 PM36 °FPassing clouds.3 mph70%30.04 "HgN/A
8:00 PM34 °FPassing clouds.5 mph75%30.04 "HgN/A
7:30 PM36 °FClear.5 mph65%30.07 "Hg10 mi
7:00 PM37 °FClear.6 mph60%30.07 "Hg10 mi
6:30 PM36 °FClear.6 mph65%30.07 "Hg10 mi
6:00 PM41 °FPassing clouds.3 mph49%30.07 "HgN/A
5:30 PM43 °FPassing clouds.3 mph46%30.07 "HgN/A
5:00 PM45 °FSunny.2 mph42%30.07 "Hg10 mi
Weather by CustomWeather, © 2015

See weather overviewHow to use our weather pages